Vorticity
14 14 14 14 13 13 12 12 11 11 10 10 10 10 10 10 9 9 8 8 8 8 9 9 9 9 9 9 9 9 9 9 9 9 9 8 8 8 8 8 8 7 7 7 7 7 7 7 7 7 7 8 7 7 7 8 7 7 7 7 7 7 7 7 7 7 7 7 7 7 7 7 7 8 8 8 8 8 8 9 9 9 9 9 9 9 9 9 9 9 9 9 10 10 9 9 9 8 8 8 7 7 7
11 11 12 12 12 13 13 12 12 12 12 11 11 11 10 10 10 10 10 10 9 9 9 9 10 10 10 10 10 10 9 9 9 9 8 8 8 8 7 7 7 7 7 7 7 7 7 7 7 7 7 7 7 7 7 7 7 7 7 8 8 7 7 7 7 7 7 7 7 7 7 7 7 7 7 7 7 7 7 8 8 9 9 9 9 9 9 9 9 10 10 9 9 10 10 10 10 9 9 8 8 8 7
7 7 8 8 9 10 10 10 10 10 10 10 10 9 9 10 10 10 10 10 9 9 9 9 9 9 9 9 9 9 8 8 8 8 8 8 8 8 8 8 8 8 8 8 8 8 8 9 9 8 8 8 8 8 8 8 8 8 8 9 8 8 7 7 7 7 7 7 7 7 7 7 7 7 7 7 7 7 6 7 7 7 8 8 8 9 9 9 9 10 10 9 9 9 9 10 11 11 11 10 10 11 10
5 5 6 6 6 7 7 7 7 7 7 7 7 7 7 7 8 8 8 8 7 7 7 7 7 7 7 7 7 7 7 7 7 7 7 7 8 8 8 8 8 9 9 9 9 9 9 9 9 9 9 9 9 9 8 8 7 7 8 9 8 8 7 7 7 7 7 7 7 6 6 6 6 6 6 6 6 5 5 5 6 6 6 6 7 7 8 8 8 8 8 8 8 8 7 8 9 10 10 10 11 11 11
5 5 5 5 5 5 5 5 5 5 5 5 5 6 6 6 6 6 6 5 5 5 5 5 5 5 5 5 5 5 5 5 6 6 6 6 7 7 7 7 8 8 8 8 8 8 8 8 8 8 8 8 7 7 7 6 6 6 6 8 8 7 6 6 6 6 6 6 6 6 6 5 5 5 5 5 5 4 4 5 5 5 5 6 6 6 6 6 6 6 6 6 6 6 6 7 7 7 7 7 7 7 7
5 5 5 5 5 5 5 6 6 6 6 5 5 5 5 5 5 5 5 5 4 4 4 4 4 4 4 4 4 4 4 4 5 5 5 5 6 6 6 6 7 7 7 7 7 7 7 6 6 6 6 6 6 5 5 5 5 5 5 7 7 6 5 5 5 5 5 5 5 5 5 5 5 5 5 5 4 4 4 5 5 5 6 6 5 5 5 5 5 5 4 4 4 4 4 4 4 4 4 4 4 4 4
4 5 5 5 5 5 5 6 6 6 6 6 6 6 5 5 5 5 5 5 5 5 5 4 4 4 4 4 4 4 5 5 5 5 5 5 6 6 6 6 6 6 6 6 6 5 5 5 5 4 4 4 4 4 4 4 4 4 4 5 5 5 4 5 5 5 5 5 4 4 4 5 5 5 5 5 5 5 5 5 5 5 5 4 4 4 4 4 4 4 4 3 3 3 3 3 3 3 3 3 2 3 3
4 4 5 5 5 5 5 5 5 6 6 6 6 5 5 5 5 5 5 5 5 5 5 5 5 5 5 5 5 6 6 6 6 6 6 6 7 6 6 6 6 6 5 5 4 4 4 4 4 4 3 4 4 4 3 3 4 4 4 4 4 4 5 5 5 5 5 5 5 5 5 5 5 5 5 5 5 5 5 5 6 6 6 5 5 4 3 2 3 4 3 3 3 3 3 3 3 3 2 2 2 2 2
4 4 4 4 4 4 4 4 5 5 5 5 5 5 5 5 5 5 5 5 5 6 5 5 5 5 6 6 6 6 6 7 7 7 7 7 7 6 6 5 5 4 4 4 3 3 3 3 3 4 3 4 4 4 4 4 4 4 4 4 4 5 5 5 5 5 5 5 5 5 5 5 5 5 5 5 5 6 6 6 6 6 7 6 5 5 4 4 4 4 4 4 4 4 4 4 4 4 3 2 2 2 1
5 4 4 4 4 4 4 4 4 4 5 5 5 5 5 5 6 6 6 6 6 6 6 6 6 6 6 6 6 7 7 7 7 7 7 7 6 5 5 4 4 3 3 3 3 3 3 3 4 4 4 4 4 4 5 5 5 5 5 5 6 6 6 6 6 6 6 6 6 6 6 6 6 6 6 6 6 6 6 6 7 7 7 7 6 5 5 5 6 6 6 6 6 5 5 7 8 8 6 5 5 5 5
5 4 4 4 4 4 4 4 4 4 4 4 5 5 5 6 6 6 6 7 7 7 7 7 7 7 7 7 7 7 7 8 8 7 7 6 5 4 3 3 3 3 3 3 3 3 3 4 4 4 4 5 5 5 6 6 6 6 6 6 7 7 7 7 7 7 7 7 7 7 7 7 7 7 7 7 7 7 7 7 7 7 7 6 6 6 6 6 7 7 7 7 7 6 7 9 10 10 8 7 8 9 10
5 5 4 4 4 4 4 4 4 4 4 4 5 5 6 6 6 7 7 7 7 7 7 7 8 8 8 8 8 8 8 8 7 7 6 4 4 3 3 2 2 2 3 3 3 3 4 4 4 4 5 5 6 6 6 6 6 7 7 7 7 7 7 8 8 8 8 8 8 7 7 7 7 7 7 7 7 8 8 7 7 7 7 6 6 6 6 6 7 7 7 7 6 6 7 8 8 8 8 7 7 8 10
6 5 5 5 5 5 4 4 4 4 4 4 5 5 6 6 6 7 7 7 7 7 7 8 8 9 9 9 9 9 8 8 7 6 4 4 3 2 2 2 2 2 2 3 3 3 4 4 4 5 5 6 6 6 6 6 7 7 7 7 7 7 7 7 8 8 8 8 8 8 8 7 7 7 7 7 7 7 7 7 7 7 7 6 7 7 7 7 7 7 7 7 6 6 5 5 6 6 6 6 5 5 6
6 5 5 5 5 5 5 4 4 4 4 4 4 5 5 6 6 7 7 7 7 7 7 8 9 9 10 9 9 9 8 7 6 5 4 3 2 2 2 2 2 2 2 3 3 3 4 4 5 5 6 6 6 6 7 7 7 7 7 7 7 7 7 7 7 7 7 7 7 7 7 7 7 7 7 7 6 7 7 7 6 6 6 6 6 6 7 7 7 7 7 7 6 6 5 5 5 5 5 4 4 4 4
6 6 6 6 6 6 5 5 5 4 4 4 4 5 5 6 6 6 6 7 7 7 8 8 9 9 9 9 9 8 7 6 5 4 3 3 2 2 2 2 2 2 2 3 3 4 4 5 5 6 6 6 6 7 7 7 7 7 7 7 7 7 7 7 7 7 7 7 7 6 6 6 6 6 6 6 6 6 6 6 6 6 5 5 5 5 6 6 6 6 6 6 6 6 6 5 5 5 4 4 4 4 3
6 6 7 7 6 6 6 6 5 5 4 4 4 4 5 5 5 6 6 6 7 7 8 8 8 9 9 8 8 7 7 6 4 4 3 2 2 2 2 2 2 2 3 3 4 4 5 5 6 6 6 7 7 7 7 7 7 7 7 7 7 7 7 7 7 7 6 6 6 6 6 6 5 5 5 5 5 5 5 5 5 5 5 5 5 5 6 6 6 6 6 6 6 6 6 6 6 5 5 5 5 4 3
6 7 7 7 7 7 7 6 6 5 5 4 4 5 5 5 5 5 6 6 6 7 8 8 8 8 8 7 7 7 6 5 4 3 3 2 2 2 2 2 2 3 3 4 4 5 6 6 6 6 6 6 7 7 7 7 7 7 7 7 7 7 7 7 7 7 7 7 6 6 6 6 6 6 6 7 7 7 7 7 7 7 7 7 7 7 7 7 7 7 7 7 7 7 7 7 6 6 6 6 5 5 4
6 7 7 7 7 7 7 7 7 6 6 5 5 5 5 5 5 5 5 5 6 6 7 8 8 8 8 7 7 6 6 5 4 4 3 2 2 2 2 2 3 3 4 4 5 6 6 6 7 7 7 6 7 7 7 7 6 6 6 6 6 6 6 7 7 7 7 7 8 8 8 8 9 9 9 9 9 9 9 9 9 9 9 9 9 9 9 9 9 9 9 9 9 9 9 8 8 8 7 7 7 6 6
5 6 6 7 7 7 7 8 8 7 7 6 6 5 5 5 5 5 5 5 6 6 6 7 8 8 7 7 6 6 5 5 4 4 3 3 3 2 2 3 3 4 4 5 6 6 6 7 7 7 6 6 6 7 7 6 6 6 6 6 6 6 6 7 7 7 8 8 9 9 10 10 11 11 11 11 11 11 11 11 11 10 10 10 10 10 11 11 11 11 11 11 10 10 10 10 9 9 9 9 8 8 7
4 5 5 6 7 7 8 8 8 8 8 7 6 6 5 5 5 5 5 6 6 6 6 6 7 7 7 7 6 6 5 5 4 4 3 3 3 3 3 3 4 4 5 6 6 6 7 7 7 6 6 6 6 7 7 6 6 6 6 6 6 6 7 7 7 8 9 9 10 10 11 11 11 11 11 11 11 11 11 11 11 11 11 11 11 11 11 11 11 12 12 12 11 11 11 10 10 9 9 9 9 9 9
3 3 4 5 6 7 8 8 9 9 8 7 7 6 5 5 5 5 6 6 6 6 6 6 6 6 6 6 6 6 5 4 4 4 4 3 3 4 4 4 5 5 6 6 7 7 7 7 7 6 6 6 6 6 6 6 6 6 6 7 7 7 8 8 8 9 9 10 10 11 11 11 11 10 10 10 10 10 10 10 10 10 10 10 10 10 10 10 10 11 11 11 11 11 11 10 9 9 9 9 9 10 10
2 2 3 4 5 6 8 9 9 9 9 8 7 6 5 5 5 5 6 6 6 6 6 6 6 6 6 5 5 5 4 4 4 4 4 4 4 4 5 5 6 6 6 7 7 7 7 7 6 6 6 6 6 6 6 6 7 7 7 8 8 8 9 9 9 10 10 10 11 11 10 10 10 10 9 9 8 8 8 9 9 9 9 9 9 9 9 9 9 9 10 10 10 10 10 10 9 9 8 8 9 9 9
2 2 2 3 4 5 7 8 10 10 9 8 7 6 5 5 5 5 5 6 6 6 5 6 6 6 5 5 5 4 4 4 4 4 4 4 5 5 6 6 6 7 7 7 7 7 7 6 6 6 5 6 6 7 7 7 7 8 8 9 9 9 10 10 10 10 10 10 10 10 10 9 9 9 8 8 8 7 7 7 8 8 9 9 8 8 8 8 8 8 8 9 9 9 9 9 9 9 9 9 8 8 9
2 2 2 3 3 4 6 8 9 10 9 7 6 6 5 5 5 5 5 5 6 6 5 6 6 5 5 5 5 4 4 4 5 5 5 5 6 6 6 6 7 7 7 7 7 6 6 6 6 6 5 6 7 7 8 8 8 9 9 10 10 10 10 10 10 10 10 10 10 9 9 9 8 8 8 8 7 7 7 7 7 8 8 8 8 7 7 7 7 7 8 8 8 8 8 8 9 9 9 9 9 8 8
2 2 2 2 3 4 5 7 9 9 9 7 6 6 5 5 5 5 5 5 6 6 5 5 5 5 5 5 5 5 5 5 6 6 6 6 6 6 7 7 7 7 7 7 6 6 6 6 6 6 6 7 8 9 10 10 10 10 10 10 10 10 10 9 9 9 9 9 9 8 8 8 8 8 7 7 7 7 6 7 7 7 7 7 7 7 7 7 6 7 7 7 8 8 8 8 8 8 8 8 8 8 8
2 2 1 2 3 3 4 6 8 9 9 7 6 6 5 5 5 5 5 5 5 5 5 5 5 5 5 5 5 5 6 6 6 6 6 7 7 7 7 7 7 7 6 6 6 6 6 6 7 7 7 8 9 10 11 11 10 10 10 10 10 9 9 9 9 8 8 8 8 7 7 7 7 7 7 7 7 6 6 6 7 7 7 6 6 6 6 6 6 6 6 7 7 8 8 7 7 7 7 8 8 8 8
2 2 1 2 2 3 4 6 7 8 9 8 7 6 5 5 5 5 5 5 5 5 5 5 5 5 5 5 6 6 6 6 6 6 7 7 7 7 6 6 6 6 6 6 7 7 7 8 8 9 9 10 10 11 13 12 11 10 10 10 10 9 9 8 8 8 7 7 7 7 7 7 7 6 6 6 6 6 6 6 6 7 6 6 6 6 6 6 6 6 6 7 7 7 7 7 7 7 7 7 8 8 8
2 2 1 2 2 3 3 5 7 8 8 8 7 7 6 6 6 6 6 5 5 5 5 5 5 6 6 6 6 6 6 7 7 7 7 7 7 7 6 6 6 7 7 7 8 9 10 10 10 11 11 11 11 12 13 12 11 10 10 10 9 9 9 8 8 7 7 7 7 7 6 6 6 6 6 6 6 6 6 6 6 7 6 6 6 6 6 6 6 6 6 7 7 7 7 7 7 7 7 7 8 8 9
3 2 2 3 3 3 3 4 6 7 8 8 8 7 6 6 6 6 6 5 5 5 5 6 6 6 6 7 7 7 7 7 7 7 7 7 7 7 7 6 7 7 8 9 10 11 12 13 13 12 12 12 12 12 12 12 11 10 10 9 9 9 8 8 7 7 7 7 7 6 6 6 6 6 6 6 6 6 6 6 6 6 6 6 5 6 6 7 7 6 6 6 7 7 7 7 7 7 7 8 8 9 9
3 2 3 3 3 3 3 4 5 7 8 9 8 7 6 6 6 6 6 6 6 6 6 6 7 7 7 7 7 7 7 7 7 7 7 7 7 7 8 8 8 9 10 12 13 13 13 13 13 13 12 11 11 11 11 11 10 10 9 9 9 8 8 7 7 7 7 7 6 6 6 6 6 6 6 5 5 5 6 6 6 6 6 5 5 6 6 7 7 6 6 7 7 7 7 7 7 7 7 8 9 9 9
3 3 4 4 3 3 3 3 5 6 8 8 8 7 6 6 6 6 6 6 6 6 7 7 7 7 7 7 7 7 7 7 7 7 7 7 8 8 9 10 10 11 13 13 14 14 14 13 12 12 11 10 10 10 10 10 9 9 8 8 8 7 7 7 7 6 6 6 6 6 6 5 5 5 5 5 5 5 5 6 6 5 5 5 5 6 6 6 6 6 6 6 7 7 7 7 7 7 8 8 8 8 9
3 3 4 4 4 3 2 3 4 6 8 8 8 7 7 7 6 6 6 7 7 7 8 8 8 8 7 7 7 7 7 7 7 7 8 8 9 10 10 11 12 13 13 14 14 14 13 12 11 11 10 10 9 9 9 9 8 8 8 7 7 7 6 6 6 6 6 6 5 5 5 5 5 5 5 5 5 5 5 6 6 6 6 6 6 6 6 6 6 6 7 7 7 7 7 7 7 8 8 8 8 8 9
4 4 5 5 4 3 2 3 4 6 7 8 8 7 7 7 7 7 7 8 8 8 8 8 8 8 7 7 7 7 6 7 7 7 8 9 9 10 11 12 13 13 13 13 13 13 12 11 10 10 9 9 8 8 8 8 7 7 7 7 6 6 6 6 6 5 5 5 5 5 5 5 5 5 5 5 6 6 6 6 6 6 6 6 6 6 7 7 7 7 7 7 7 7 7 7 8 8 9 9 9 9 10
4 5 5 5 4 3 2 3 4 6 7 8 8 8 7 7 7 7 8 8 9 9 9 9 8 7 7 6 6 6 6 6 7 7 8 9 10 10 11 12 13 13 13 13 12 12 11 10 9 9 8 8 7 7 7 7 7 6 6 6 6 6 5 5 5 5 5 5 5 5 5 6 6 6 6 6 6 7 7 7 7 7 7 7 7 7 7 7 7 7 7 7 7 8 8 8 8 9 9 9 10 10 10
4 5 6 5 4 3 3 3 4 6 7 8 8 8 7 7 7 8 9 9 10 10 10 8 7 6 6 5 5 6 6 6 7 7 8 9 10 10 11 12 12 12 12 12 11 10 9 9 8 8 7 7 7 7 7 7 7 6 5 5 5 5 5 5 5 5 5 5 5 6 6 6 6 7 7 7 7 7 7 7 7 7 8 8 8 8 8 8 8 8 8 8 8 8 8 8 9 9 10 10 10 11 11
5 6 6 5 4 3 3 3 4 6 8 9 8 8 7 7 7 8 9 10 10 9 8 7 6 5 5 5 5 6 7 7 7 8 9 10 10 10 11 12 12 12 11 11 10 9 9 8 7 7 7 6 6 6 6 6 6 6 5 4 4 4 5 5 5 5 5 6 6 6 6 7 7 7 7 7 7 7 8 8 8 8 8 8 8 8 8 8 8 8 9 9 9 9 9 9 9 10 10 11 11 11 11
6 6 6 5 4 3 2 3 4 6 8 8 8 8 7 8 8 9 10 9 9 8 6 5 5 5 5 6 6 7 7 7 8 9 10 10 10 11 12 12 11 11 11 10 9 8 8 7 7 6 6 6 6 6 5 5 5 5 5 4 4 4 4 4 5 5 6 6 6 6 6 7 7 7 7 7 7 7 7 8 8 8 8 8 8 8 8 8 8 9 9 9 9 9 9 9 10 10 10 11 11 11 10
7 7 6 5 4 3 3 3 5 7 8 9 8 8 8 8 9 9 9 8 7 6 5 5 5 5 6 7 7 8 8 9 9 9 10 10 11 11 12 12 11 10 10 9 8 8 7 7 6 6 6 6 6 5 5 4 4 4 4 4 4 4 4 4 5 5 5 6 6 6 6 7 7 7 7 7 7 7 7 7 7 7 8 8 8 8 8 8 9 9 9 9 9 9 9 9 10 10 10 10 10 9 8
8 7 5 5 4 4 3 4 5 7 9 9 8 8 8 8 9 9 9 7 6 5 5 5 6 6 7 8 8 9 9 10 10 10 10 10 11 12 12 11 11 10 9 8 7 7 7 6 6 6 6 6 5 5 4 4 4 4 4 4 4 4 4 4 5 5 5 5 6 6 6 6 6 7 7 7 7 7 7 7 7 7 7 8 8 8 8 8 9 9 9 9 9 9 10 10 10 10 10 9 9 7 6
8 6 5 4 4 4 3 5 6 8 9 9 8 8 8 9 9 9 7 6 5 5 6 6 7 8 8 9 9 10 10 10 10 10 11 11 11 11 11 11 10 9 8 8 7 7 7 6 6 6 5 5 5 4 4 4 3 3 3 4 4 4 5 5 5 5 5 5 5 6 6 6 6 6 6 6 6 7 7 7 7 7 7 7 8 8 8 8 8 9 9 9 9 9 10 10 10 9 9 8 7 6 4
8 6 5 5 4 4 4 6 7 9 9 8 8 8 9 10 9 7 6 5 5 6 7 7 8 9 9 10 10 10 11 11 11 11 11 11 11 11 10 10 9 9 8 7 7 6 6 6 6 6 5 5 4 4 4 4 3 3 3 3 4 4 5 5 5 5 5 5 5 5 6 6 6 6 6 6 6 6 7 7 7 7 7 7 7 8 8 8 8 9 9 9 9 9 9 10 9 9 9 8 6 5 3
7 6 6 5 5 4 5 6 8 9 8 8 8 8 9 9 8 6 5 5 5 6 7 8 9 10 10 10 10 11 11 11 11 11 11 11 10 10 10 9 9 8 7 7 7 6 6 6 6 6 5 4 4 4 4 4 4 3 3 3 4 4 5 5 5 5 5 5 5 5 5 5 6 6 6 6 6 6 7 7 7 7 7 7 7 8 8 8 9 9 9 9 9 9 9 9 9 9 8 7 6 4 2
7 7 6 6 5 5 5 7 8 9 8 7 7 8 9 8 7 5 5 5 6 7 8 8 9 10 10 10 11 11 11 11 11 11 11 10 10 10 9 9 8 8 7 7 7 6 6 6 6 6 5 5 4 4 4 4 4 3 3 3 3 4 4 5 5 4 4 5 5 5 5 5 5 6 6 6 6 6 7 7 7 7 7 7 7 8 8 8 9 9 9 9 9 9 9 9 9 8 8 7 5 4 2
8 8 7 6 5 5 6 8 9 9 8 7 7 8 8 7 6 5 5 6 7 7 8 9 9 10 10 10 10 11 11 10 10 10 10 10 10 9 9 9 8 8 7 7 7 6 6 6 5 5 5 5 5 4 4 4 4 3 3 3 3 4 4 4 4 4 4 4 4 5 5 5 5 6 6 6 6 6 7 7 7 7 7 7 7 7 8 8 8 9 9 9 9 9 9 9 8 8 7 6 5 4 2
8 8 7 6 5 6 7 9 9 8 7 7 7 8 7 6 5 5 6 7 8 8 8 9 9 10 10 10 10 10 11 10 10 10 10 10 9 9 9 8 8 8 7 7 7 6 6 6 5 5 5 5 5 5 4 4 4 3 3 4 4 4 4 4 4 4 4 4 4 4 5 5 5 5 6 6 6 6 6 7 7 7 7 7 7 7 7 8 8 8 8 9 9 9 9 9 8 8 7 6 5 4 3
8 8 7 6 6 7 8 9 9 8 7 7 7 7 6 5 4 5 6 7 8 9 9 9 9 9 10 10 10 10 10 10 10 10 10 9 9 9 9 8 8 8 7 7 6 6 6 5 5 5 5 5 5 4 4 4 4 4 4 4 4 3 3 3 3 4 4 4 4 4 5 5 5 5 5 6 6 6 6 6 7 7 7 7 7 7 7 8 8 8 8 9 9 9 9 9 8 8 7 6 5 4 3
8 8 7 7 7 8 9 9 9 8 7 7 7 6 5 4 5 5 7 7 8 9 9 9 9 9 9 10 10 10 10 10 10 10 9 9 9 9 8 8 8 8 7 6 6 5 5 5 5 5 5 5 4 4 4 4 4 5 5 5 4 3 3 3 3 4 4 4 4 4 5 5 5 5 5 6 6 6 6 6 6 6 7 7 7 7 7 8 8 8 8 8 9 9 9 9 9 8 8 7 6 5 4
8 8 7 7 8 9 10 9 8 7 7 7 6 5 4 4 5 6 7 8 8 8 9 9 9 9 9 10 10 10 10 10 10 9 9 9 9 9 8 7 7 7 7 6 6 6 5 5 5 5 5 5 4 4 5 5 5 6 6 5 4 4 3 3 3 4 4 4 4 4 5 5 5 5 6 6 6 6 6 6 6 7 7 7 7 7 7 7 8 8 8 8 8 8 9 9 8 8 8 7 7 6 5
8 8 8 8 9 10 11 9 8 7 7 7 5 5 4 5 6 7 8 8 8 8 8 8 9 9 8 9 9 9 9 9 10 9 8 8 8 8 8 8 7 7 7 7 6 6 6 6 5 5 5 5 5 5 5 6 6 6 5 4 4 4 4 4 4 4 4 4 4 5 5 6 6 6 6 6 6 6 6 6 7 7 7 7 7 7 7 7 7 7 7 8 8 8 8 8 8 8 8 8 7 7 6
8 8 9 10 11 11 10 9 8 7 7 6 5 4 5 5 6 7 8 8 8 8 8 8 8 8 8 8 8 8 9 9 8 8 9 9 8 7 7 7 7 7 7 7 7 6 6 5 5 5 5 5 5 5 6 6 6 5 4 4 4 4 4 5 5 5 5 5 6 6 6 7 7 7 7 7 7 7 7 7 7 7 7 7 7 7 7 7 7 7 7 7 7 7 8 8 8 8 8 8 8 7 7
8 8 8 9 10 10 9 8 7 7 6 5 4 4 5 6 7 8 8 8 7 7 7 7 7 8 8 7 7 7 8 8 8 8 8 9 9 9 7 5 6 7 8 7 7 6 5 5 6 6 6 6 6 6 6 6 5 5 5 5 5 5 6 6 6 6 6 6 6 7 7 8 8 8 8 7 7 7 7 7 7 7 7 7 7 7 7 7 7 7 7 7 7 7 7 7 7 8 8 8 8 7 7
9 9 8 8 8 8 8 8 7 6 5 4 4 4 5 6 7 7 7 7 7 6 6 6 6 7 7 7 7 7 7 7 8 8 8 7 8 9 8 6 6 7 7 6 6 6 5 6 7 7 6 5 5 6 6 5 5 6 6 6 7 7 7 7 7 6 6 7 7 7 8 8 8 8 8 8 7 7 7 7 7 7 8 8 8 8 8 8 8 8 8 8 8 8 8 8 8 8 8 8 7 7 7
8 9 9 9 8 7 7 8 7 6 4 4 4 5 6 7 7 7 7 7 6 6 6 6 5 5 6 6 7 7 7 7 7 8 9 7 6 7 8 9 9 8 5 3 3 4 6 7 8 8 7 5 5 5 5 5 6 6 6 7 7 7 6 6 6 6 6 6 7 7 7 8 8 8 8 9 9 8 8 8 8 9 9 9 9 9 9 9 9 9 9 9 9 9 9 8 8 8 8 8 7 7 7
10 9 8 8 7 7 7 7 7 5 4 4 5 6 6 7 7 7 7 6 6 5 5 5 5 5 5 4 5 6 7 7 6 7 8 8 7 6 7 10 9 8 7 6 5 5 7 9 9 8 6 6 6 6 6 6 6 5 5 5 5 5 5 5 6 6 7 7 7 7 7 8 9 9 10 10 10 10 10 10 10 10 10 10 10 10 10 11 10 10 10 10 10 9 9 9 9 8 8 8 7 7 7
10 9 7 7 7 6 7 7 6 5 3 4 5 6 7 7 7 6 6 5 5 5 4 4 4 5 6 5 4 4 5 6 7 7 7 8 9 8 6 5 6 7 8 10 9 8 5 7 7 7 6 7 7 7 7 7 6 6 6 5 5 5 5 5 6 6 7 7 8 8 8 9 9 10 11 11 11 11 11 11 10 10 10 11 11 11 11 11 11 11 11 11 10 10 9 9 8 8 7 7 7 6 6
9 7 6 5 5 5 7 6 5 4 3 4 5 6 7 6 6 6 6 5 5 4 4 4 4 5 6 5 4 4 4 6 7 7 7 7 8 9 7 6 6 6 6 9 9 9 7 5 6 7 8 8 8 8 8 8 8 7 7 7 7 7 6 6 6 6 6 6 7 8 9 9 10 10 12 11 12 12 12 12 12 11 11 11 11 11 11 11 11 11 11 10 10 10 9 9 8 8 8 7 7 7 7
9 7 5 2 2 3 5 6 5 4 3 4 5 6 7 6 6 6 5 5 4 4 4 4 4 4 5 5 4 3 4 5 6 7 8 7 7 8 10 10 9 8 6 6 5 6 7 6 7 7 6 8 8 8 7 8 8 8 8 8 8 8 7 7 7 6 6 6 6 6 7 8 9 10 10 11 11 12 13 13 13 12 11 11 11 10 10 10 10 10 10 9 9 9 9 9 9 8 8 8 8 8 8
10 8 4 1 0 2 4 5 4 4 3 4 5 6 7 7 6 6 5 4 4 4 4 4 4 4 4 5 4 4 5 5 5 6 7 7 7 8 9 10 10 10 10 8 7 6 4 7 9 8 5 6 7 9 8 7 8 8 8 8 7 7 7 7 7 7 7 6 6 6 6 7 7 8 8 9 10 11 11 12 12 12 12 11 10 10 9 9 8 8 8 8 8 8 8 7 7 7 8 8 8 8 8
10 8 4 1 1 2 4 4 4 4 4 5 6 6 7 7 6 6 5 4 4 4 4 4 5 5 4 4 5 5 6 6 6 5 5 7 8 9 8 7 8 9 10 10 10 9 6 7 7 7 6 6 6 7 8 8 7 7 7 7 7 7 7 7 7 7 7 7 7 7 7 7 7 7 7 8 8 9 10 10 10 11 11 10 10 9 8 7 7 6 6 6 6 6 6 6 6 6 5 5 6 6 6
9 6 3 2 2 3 4 4 4 4 4 5 6 6 6 6 6 5 4 4 4 4 4 5 5 5 5 5 5 6 5 6 6 6 6 7 8 8 8 7 8 8 8 7 8 8 8 8 7 6 7 7 6 5 6 7 7 7 6 6 6 6 6 7 7 7 8 8 8 8 8 9 9 9 9 9 9 9 9 9 9 9 9 9 8 8 7 6 6 6 5 5 5 5 5 5 5 5 5 5 5 5 5
8 5 3 3 3 4 5 4 4 4 5 6 6 6 6 5 5 4 4 3 3 4 5 5 5 5 6 6 6 6 6 5 6 7 8 7 7 7 8 8 8 8 8 7 7 7 7 7 7 6 6 7 7 7 7 6 6 6 7 6 6 7 7 7 8 8 9 9 9 9 10 10 10 10 10 10 10 10 10 9 9 8 8 7 7 6 6 6 6 6 6 6 6 6 6 6 6 6 6 6 6 6 6
Height
3142 3142 3142 3142 3142 3142 3142 3142 3142 3142 3142 3142 3142 3142 3142 3142 3142 3142 3142 3142 3142 3142 3142 3142 3142 3142 3142 3142 3142 3142 3142 3142 3142 3142 3142 3142 3142 3142 3142 3141 3141 3141 3141 3141 3141 3141 3141 3141 3141 3140 3140 3140 3140 3140 3140 3140 3140 3139 3139 3139 3139 3139 3139 3138 3138 3138 3138 3138 3138 3137 3137 3137 3137 3137 3137 3137 3136 3136 3136 3136 3136 3136 3136 3135 3135 3135 3135 3135 3135 3135 3135 3135 3135 3135 3135 3135 3135 3135 3135 3135 3135 3135 3135
3142 3142 3142 3142 3142 3142 3142 3142 3142 3142 3142 3142 3142 3142 3142 3142 3142 3142 3142 3142 3142 3142 3142 3142 3142 3142 3142 3142 3142 3142 3141 3141 3141 3141 3141 3141 3141 3141 3141 3141 3141 3140 3140 3140 3140 3140 3140 3140 3140 3140 3140 3140 3140 3140 3140 3139 3139 3139 3139 3139 3139 3139 3138 3138 3138 3137 3137 3137 3137 3137 3137 3136 3136 3136 3136 3136 3136 3136 3135 3135 3135 3135 3135 3135 3135 3135 3134 3134 3134 3134 3134 3134 3134 3134 3134 3134 3135 3134 3134 3134 3134 3134 3134
3143 3143 3142 3142 3142 3142 3142 3142 3142 3142 3142 3142 3142 3142 3142 3142 3142 3142 3142 3142 3142 3142 3142 3141 3141 3141 3141 3141 3141 3141 3141 3141 3141 3141 3141 3140 3140 3140 3140 3140 3140 3140 3140 3140 3140 3140 3140 3140 3140 3140 3140 3139 3139 3139 3139 3139 3139 3138 3138 3138 3138 3138 3138 3137 3137 3137 3137 3136 3136 3136 3136 3136 3136 3136 3136 3135 3135 3135 3135 3135 3135 3135 3134 3134 3134 3134 3134 3134 3133 3133 3133 3133 3133 3133 3133 3133 3133 3134 3134 3134 3134 3134 3133
3143 3143 3143 3143 3143 3143 3143 3143 3143 3143 3143 3143 3143 3143 3142 3142 3142 3142 3142 3141 3141 3141 3141 3141 3141 3141 3141 3141 3141 3141 3141 3141 3140 3140 3140 3140 3140 3140 3140 3140 3140 3140 3140 3140 3140 3140 3140 3139 3139 3139 3139 3139 3139 3139 3139 3138 3138 3138 3138 3138 3138 3138 3137 3137 3136 3136 3136 3136 3136 3135 3135 3135 3135 3135 3135 3135 3135 3135 3134 3134 3134 3134 3134 3134 3133 3133 3133 3133 3133 3133 3133 3133 3133 3133 3133 3133 3133 3133 3133 3133 3133 3133 3133
3143 3143 3143 3143 3143 3143 3143 3143 3143 3143 3143 3143 3143 3143 3142 3142 3142 3142 3142 3141 3141 3141 3141 3141 3141 3141 3141 3141 3141 3141 3140 3140 3140 3140 3140 3140 3140 3140 3140 3140 3140 3140 3140 3140 3140 3140 3140 3139 3139 3139 3139 3139 3139 3138 3138 3138 3138 3137 3137 3137 3137 3137 3136 3136 3136 3136 3135 3135 3135 3135 3135 3135 3135 3135 3135 3134 3134 3134 3134 3134 3133 3133 3133 3133 3133 3132 3132 3132 3132 3132 3132 3132 3132 3132 3132 3133 3133 3133 3132 3132 3132 3132 3132
3144 3144 3144 3144 3143 3143 3143 3143 3143 3143 3143 3143 3143 3142 3142 3142 3142 3142 3141 3141 3141 3141 3141 3141 3141 3141 3141 3141 3140 3140 3140 3140 3140 3140 3140 3140 3140 3140 3140 3140 3140 3140 3140 3140 3140 3140 3139 3139 3139 3139 3139 3138 3138 3138 3138 3137 3137 3137 3136 3137 3137 3136 3136 3136 3135 3135 3135 3135 3135 3135 3135 3134 3134 3134 3134 3134 3134 3133 3133 3133 3133 3133 3132 3132 3132 3132 3131 3131 3131 3131 3131 3131 3131 3131 3131 3132 3132 3131 3131 3131 3131 3130 3130
3144 3144 3144 3144 3144 3143 3143 3143 3143 3143 3143 3143 3142 3142 3142 3142 3142 3142 3141 3141 3141 3141 3141 3141 3141 3141 3140 3140 3140 3140 3140 3140 3140 3140 3140 3140 3140 3140 3140 3140 3140 3140 3140 3140 3140 3139 3139 3139 3139 3139 3138 3138 3138 3138 3137 3137 3136 3136 3136 3136 3136 3136 3135 3135 3135 3135 3134 3134 3134 3134 3134 3134 3133 3133 3133 3133 3133 3132 3132 3132 3132 3132 3131 3131 3131 3131 3130 3131 3130 3130 3130 3130 3130 3130 3130 3130 3130 3130 3130 3130 3130 3130 3130
3144 3144 3144 3144 3144 3144 3143 3143 3143 3143 3143 3143 3142 3142 3142 3142 3142 3141 3141 3141 3141 3141 3141 3141 3140 3140 3140 3140 3140 3140 3140 3140 3140 3140 3140 3140 3140 3140 3140 3140 3140 3140 3139 3139 3139 3139 3139 3138 3138 3138 3138 3138 3137 3137 3137 3136 3136 3135 3135 3136 3136 3135 3135 3135 3135 3134 3134 3133 3133 3133 3133 3133 3133 3132 3132 3132 3132 3131 3131 3131 3131 3131 3131 3130 3130 3130 3130 3130 3130 3129 3129 3129 3129 3129 3129 3129 3129 3129 3129 3129 3129 3129 3129
3144 3144 3144 3144 3144 3143 3143 3143 3143 3143 3143 3142 3142 3142 3142 3142 3141 3141 3141 3141 3141 3141 3141 3140 3140 3140 3140 3140 3140 3140 3140 3140 3140 3139 3139 3139 3139 3139 3139 3139 3139 3139 3139 3139 3139 3139 3138 3138 3138 3137 3137 3137 3137 3136 3136 3136 3135 3135 3135 3135 3135 3135 3134 3134 3134 3133 3133 3132 3132 3132 3132 3132 3131 3131 3131 3131 3130 3130 3130 3130 3130 3130 3130 3129 3129 3129 3128 3128 3128 3128 3128 3128 3128 3128 3128 3128 3128 3128 3128 3128 3128 3128 3127
3144 3144 3144 3144 3144 3143 3143 3143 3143 3143 3143 3142 3142 3142 3142 3142 3141 3141 3141 3141 3141 3140 3140 3140 3140 3140 3140 3140 3140 3140 3140 3139 3139 3139 3139 3139 3139 3139 3139 3139 3139 3139 3139 3138 3138 3138 3138 3137 3137 3137 3136 3136 3136 3136 3135 3135 3134 3134 3134 3134 3134 3134 3133 3133 3133 3132 3132 3132 3131 3131 3131 3130 3130 3130 3130 3130 3130 3129 3129 3129 3129 3128 3128 3128 3127 3127 3127 3127 3127 3127 3127 3127 3127 3127 3127 3127 3127 3127 3127 3127 3127 3126 3126
3144 3144 3144 3144 3143 3143 3143 3143 3143 3143 3142 3142 3142 3142 3142 3141 3141 3141 3141 3141 3140 3140 3140 3140 3140 3140 3140 3140 3139 3139 3139 3139 3139 3139 3139 3139 3139 3138 3138 3138 3138 3138 3138 3138 3138 3137 3137 3137 3136 3136 3136 3135 3135 3135 3135 3134 3134 3133 3133 3133 3133 3132 3132 3132 3132 3131 3131 3131 3130 3130 3130 3130 3129 3129 3129 3128 3128 3128 3128 3128 3127 3127 3127 3126 3126 3126 3126 3126 3126 3126 3126 3126 3126 3126 3126 3126 3126 3126 3126 3126 3126 3125 3125
3144 3144 3144 3144 3143 3143 3143 3143 3143 3143 3142 3142 3142 3142 3141 3141 3141 3141 3140 3140 3140 3140 3140 3140 3140 3140 3139 3139 3139 3139 3139 3139 3139 3139 3138 3138 3138 3138 3138 3138 3138 3138 3137 3137 3137 3137 3136 3136 3136 3135 3135 3135 3135 3134 3134 3133 3133 3133 3132 3132 3132 3131 3131 3131 3131 3130 3130 3130 3129 3129 3129 3128 3128 3128 3128 3127 3127 3127 3127 3126 3126 3126 3125 3125 3125 3125 3125 3125 3125 3125 3125 3125 3125 3125 3125 3125 3125 3124 3124 3125 3125 3125 3125
3144 3144 3144 3143 3143 3143 3143 3143 3143 3142 3142 3142 3142 3142 3141 3141 3141 3140 3140 3140 3140 3140 3140 3140 3139 3139 3139 3139 3139 3139 3139 3139 3138 3138 3138 3138 3138 3138 3138 3137 3137 3137 3137 3137 3136 3136 3136 3135 3135 3135 3134 3134 3133 3133 3133 3132 3132 3132 3131 3131 3131 3130 3130 3130 3130 3129 3129 3129 3128 3128 3128 3127 3127 3127 3126 3126 3126 3126 3125 3125 3125 3125 3124 3124 3124 3124 3124 3124 3124 3124 3124 3124 3124 3124 3123 3123 3123 3123 3123 3123 3123 3123 3123
3144 3144 3143 3143 3143 3143 3143 3143 3142 3142 3142 3142 3142 3141 3141 3141 3141 3140 3140 3140 3140 3139 3139 3139 3139 3139 3139 3139 3139 3138 3138 3138 3138 3138 3138 3138 3137 3137 3137 3137 3137 3136 3136 3136 3136 3135 3135 3135 3134 3134 3133 3133 3132 3132 3132 3131 3131 3131 3130 3130 3130 3130 3129 3129 3129 3128 3128 3128 3127 3127 3127 3126 3126 3126 3125 3125 3125 3125 3124 3124 3124 3124 3123 3123 3123 3123 3123 3123 3123 3123 3122 3122 3122 3122 3122 3122 3122 3122 3122 3122 3121 3121 3121
3144 3143 3143 3143 3143 3143 3142 3142 3142 3142 3142 3142 3141 3141 3141 3141 3140 3140 3140 3139 3139 3139 3139 3139 3139 3139 3139 3138 3138 3138 3138 3138 3137 3137 3137 3137 3137 3137 3136 3136 3136 3136 3135 3135 3135 3134 3134 3134 3133 3133 3132 3132 3131 3131 3131 3130 3130 3130 3130 3129 3129 3129 3128 3128 3128 3127 3127 3127 3127 3126 3126 3125 3125 3125 3125 3124 3124 3124 3123 3123 3123 3122 3122 3122 3122 3121 3122 3122 3121 3121 3121 3121 3121 3121 3121 3121 3120 3120 3120 3120 3120 3120 3120
3143 3143 3143 3143 3143 3142 3142 3142 3142 3142 3141 3141 3141 3141 3141 3140 3140 3140 3139 3139 3139 3139 3139 3138 3138 3138 3138 3138 3138 3138 3137 3137 3137 3137 3137 3136 3136 3136 3136 3135 3135 3135 3135 3134 3134 3133 3133 3133 3132 3131 3131 3131 3130 3130 3130 3130 3129 3129 3129 3128 3128 3128 3127 3127 3127 3126 3126 3126 3126 3125 3125 3125 3124 3124 3124 3123 3123 3122 3122 3122 3121 3121 3121 3120 3120 3120 3120 3120 3120 3120 3120 3120 3120 3120 3120 3119 3119 3119 3119 3119 3119 3119 3119
3143 3143 3143 3143 3142 3142 3142 3142 3142 3141 3141 3141 3141 3141 3140 3140 3140 3139 3139 3139 3138 3138 3138 3138 3138 3138 3138 3137 3137 3137 3137 3137 3136 3136 3136 3136 3135 3135 3135 3135 3135 3134 3134 3133 3133 3132 3132 3131 3131 3130 3130 3130 3129 3129 3129 3129 3128 3128 3127 3127 3127 3127 3126 3126 3126 3125 3125 3125 3125 3124 3124 3124 3123 3123 3123 3122 3122 3121 3121 3121 3120 3120 3120 3119 3119 3119 3119 3119 3119 3119 3119 3119 3118 3118 3118 3118 3118 3117 3117 3117 3117 3117 3117
3143 3143 3143 3142 3142 3142 3142 3141 3141 3141 3141 3141 3140 3140 3140 3140 3139 3139 3139 3138 3138 3138 3138 3138 3137 3137 3137 3137 3137 3136 3136 3136 3136 3136 3135 3135 3135 3135 3134 3134 3134 3133 3133 3132 3132 3131 3131 3130 3130 3129 3129 3128 3128 3128 3128 3128 3127 3126 3126 3126 3126 3125 3125 3125 3125 3124 3124 3124 3124 3123 3123 3123 3122 3122 3121 3121 3120 3120 3120 3120 3119 3119 3118 3118 3118 3118 3118 3118 3118 3118 3117 3117 3117 3117 3116 3116 3116 3116 3116 3115 3115 3115 3115
3143 3143 3142 3142 3142 3142 3141 3141 3141 3141 3140 3140 3140 3140 3140 3139 3139 3139 3138 3138 3138 3137 3137 3137 3137 3137 3137 3136 3136 3136 3136 3135 3135 3135 3135 3135 3134 3134 3133 3133 3133 3132 3132 3131 3131 3130 3130 3129 3129 3128 3128 3127 3127 3127 3127 3126 3126 3125 3125 3125 3125 3124 3124 3123 3123 3123 3123 3123 3122 3122 3122 3121 3121 3120 3120 3120 3119 3119 3119 3118 3118 3118 3117 3117 3117 3116 3116 3116 3116 3116 3116 3116 3115 3115 3115 3115 3115 3114 3114 3114 3114 3114 3114
3142 3142 3142 3142 3142 3141 3141 3141 3140 3140 3140 3140 3140 3140 3139 3139 3138 3138 3138 3138 3137 3137 3137 3137 3136 3136 3136 3136 3135 3135 3135 3135 3135 3134 3134 3134 3133 3133 3132 3132 3132 3131 3131 3130 3130 3130 3129 3128 3128 3127 3127 3126 3125 3126 3126 3125 3125 3124 3124 3124 3123 3123 3122 3122 3122 3121 3121 3121 3121 3120 3120 3120 3120 3119 3119 3118 3118 3117 3117 3117 3117 3116 3116 3116 3115 3115 3115 3115 3115 3115 3115 3115 3115 3114 3114 3113 3113 3113 3113 3112 3112 3112 3112
3142 3142 3142 3142 3141 3141 3141 3140 3140 3140 3140 3140 3139 3139 3139 3138 3138 3138 3137 3137 3137 3137 3136 3136 3136 3136 3135 3135 3135 3135 3134 3134 3134 3133 3133 3133 3132 3132 3131 3131 3131 3130 3130 3130 3129 3128 3128 3127 3127 3126 3125 3125 3124 3125 3125 3124 3124 3123 3123 3122 3122 3121 3121 3121 3120 3120 3120 3120 3120 3119 3119 3119 3118 3118 3118 3117 3116 3116 3116 3116 3116 3115 3115 3115 3115 3114 3114 3114 3114 3114 3114 3113 3113 3113 3112 3112 3112 3111 3111 3111 3111 3111 3111
3142 3142 3141 3141 3141 3141 3140 3140 3140 3140 3139 3139 3139 3139 3138 3138 3137 3137 3137 3137 3136 3136 3136 3135 3135 3135 3135 3135 3134 3134 3134 3133 3133 3132 3132 3132 3131 3131 3130 3130 3130 3129 3129 3128 3128 3127 3127 3126 3126 3125 3125 3124 3123 3123 3124 3123 3122 3122 3121 3121 3120 3120 3120 3120 3119 3119 3119 3119 3118 3118 3118 3117 3117 3117 3116 3116 3115 3115 3115 3115 3115 3114 3114 3114 3114 3113 3113 3113 3113 3112 3112 3112 3112 3112 3111 3111 3110 3110 3110 3110 3110 3110 3109
3141 3141 3141 3141 3141 3140 3140 3140 3140 3139 3139 3138 3138 3138 3138 3137 3137 3137 3136 3136 3136 3135 3135 3135 3135 3135 3134 3134 3134 3133 3133 3132 3132 3131 3131 3131 3130 3130 3130 3129 3129 3128 3128 3127 3127 3126 3126 3125 3125 3124 3123 3123 3122 3123 3123 3122 3121 3120 3120 3120 3119 3119 3119 3118 3118 3118 3118 3117 3117 3117 3116 3116 3116 3115 3115 3115 3114 3114 3113 3113 3113 3113 3113 3113 3112 3112 3112 3111 3111 3111 3111 3111 3111 3110 3110 3110 3109 3109 3109 3108 3108 3108 3108
3141 3140 3140 3140 3140 3140 3140 3140 3139 3139 3138 3138 3137 3137 3137 3136 3136 3136 3136 3135 3135 3135 3135 3135 3134 3134 3134 3133 3133 3132 3132 3131 3131 3131 3130 3130 3129 3129 3129 3128 3128 3127 3127 3126 3126 3125 3125 3125 3124 3123 3122 3121 3121 3122 3121 3121 3120 3119 3119 3119 3118 3118 3118 3117 3117 3117 3116 3116 3116 3116 3115 3115 3115 3114 3114 3114 3113 3113 3112 3112 3112 3112 3112 3111 3111 3111 3111 3110 3110 3110 3110 3110 3110 3109 3109 3108 3108 3108 3107 3107 3107 3106 3106
3140 3140 3140 3140 3140 3140 3139 3139 3139 3138 3138 3137 3137 3136 3136 3136 3136 3135 3135 3135 3135 3134 3134 3134 3133 3133 3133 3132 3132 3132 3131 3131 3130 3130 3129 3129 3128 3128 3127 3127 3127 3126 3126 3125 3125 3125 3124 3123 3123 3122 3121 3120 3120 3120 3120 3120 3119 3118 3118 3118 3117 3117 3117 3116 3116 3116 3115 3115 3115 3115 3114 3114 3114 3113 3113 3113 3112 3112 3111 3111 3111 3111 3111 3110 3110 3110 3110 3109 3109 3109 3109 3109 3108 3108 3108 3107 3107 3106 3106 3106 3105 3105 3105
3140 3140 3140 3140 3139 3139 3139 3138 3138 3138 3137 3137 3136 3136 3136 3135 3135 3135 3135 3134 3134 3134 3133 3133 3133 3132 3132 3131 3131 3131 3130 3130 3129 3129 3128 3128 3127 3127 3126 3126 3125 3125 3125 3124 3124 3124 3123 3122 3121 3121 3120 3119 3119 3119 3120 3119 3118 3117 3117 3117 3116 3116 3116 3115 3115 3115 3115 3114 3114 3114 3113 3113 3113 3112 3112 3111 3111 3111 3110 3110 3110 3110 3110 3109 3109 3109 3108 3108 3108 3107 3107 3107 3107 3107 3106 3106 3105 3105 3105 3105 3104 3104 3104
3140 3140 3139 3139 3139 3138 3138 3138 3137 3137 3137 3136 3136 3135 3135 3135 3135 3134 3134 3134 3133 3133 3133 3132 3132 3131 3131 3130 3130 3130 3129 3129 3128 3128 3127 3127 3126 3126 3125 3125 3125 3124 3124 3123 3123 3123 3122 3121 3120 3120 3119 3118 3118 3118 3119 3118 3117 3116 3116 3116 3115 3115 3115 3115 3114 3114 3114 3113 3113 3113 3112 3112 3112 3111 3111 3110 3110 3110 3110 3109 3109 3109 3109 3108 3108 3107 3107 3107 3106 3106 3106 3106 3106 3105 3105 3105 3104 3104 3104 3103 3103 3103 3102
3139 3139 3139 3138 3138 3138 3138 3137 3137 3136 3136 3135 3135 3135 3135 3134 3134 3134 3133 3133 3132 3132 3132 3131 3131 3130 3130 3130 3129 3129 3128 3128 3127 3127 3126 3126 3125 3125 3124 3124 3124 3123 3123 3122 3122 3121 3121 3120 3119 3119 3118 3117 3117 3117 3117 3117 3116 3116 3115 3115 3115 3114 3114 3114 3113 3113 3113 3112 3112 3112 3111 3111 3110 3110 3110 3109 3109 3109 3109 3108 3108 3108 3107 3107 3106 3106 3106 3105 3105 3105 3105 3104 3104 3104 3104 3103 3103 3103 3102 3102 3101 3101 3101
3138 3138 3138 3138 3138 3137 3137 3137 3136 3136 3135 3135 3135 3134 3134 3134 3133 3133 3132 3132 3132 3131 3131 3130 3130 3129 3129 3128 3128 3128 3127 3127 3126 3126 3125 3125 3125 3124 3124 3123 3123 3122 3122 3121 3121 3120 3120 3119 3118 3117 3117 3116 3116 3116 3116 3116 3115 3115 3115 3114 3114 3114 3113 3113 3112 3112 3112 3111 3111 3111 3110 3110 3110 3109 3109 3108 3108 3108 3107 3107 3107 3106 3106 3105 3105 3105 3105 3104 3104 3103 3103 3103 3102 3102 3102 3102 3101 3101 3101 3100 3100 3100 3100
3138 3137 3137 3137 3137 3137 3136 3136 3135 3135 3135 3135 3134 3134 3133 3133 3132 3132 3132 3131 3131 3130 3130 3129 3129 3128 3128 3127 3127 3126 3126 3126 3125 3125 3125 3124 3124 3123 3123 3122 3122 3121 3121 3120 3120 3119 3119 3118 3117 3116 3116 3115 3115 3115 3115 3115 3115 3114 3114 3113 3113 3113 3112 3112 3111 3111 3111 3110 3110 3110 3109 3109 3108 3108 3107 3107 3107 3106 3106 3106 3105 3105 3105 3104 3104 3103 3103 3103 3102 3102 3101 3101 3101 3100 3100 3100 3100 3099 3099 3099 3099 3098 3098
3137 3136 3136 3136 3136 3136 3135 3135 3135 3135 3134 3134 3133 3133 3132 3132 3132 3131 3131 3130 3130 3129 3129 3128 3128 3127 3127 3126 3126 3125 3125 3125 3125 3124 3124 3123 3123 3122 3122 3121 3120 3120 3120 3119 3119 3118 3117 3117 3116 3115 3115 3115 3114 3114 3114 3114 3114 3113 3113 3112 3112 3112 3111 3111 3110 3110 3110 3109 3109 3109 3108 3108 3107 3107 3106 3106 3105 3105 3105 3104 3104 3104 3103 3103 3102 3102 3102 3101 3101 3100 3100 3100 3099 3099 3098 3098 3098 3098 3097 3097 3097 3096 3096
3136 3136 3136 3135 3135 3135 3135 3134 3134 3134 3133 3133 3132 3132 3131 3131 3131 3130 3130 3129 3129 3128 3128 3127 3127 3126 3126 3125 3125 3125 3124 3124 3123 3123 3123 3122 3122 3121 3120 3120 3120 3119 3118 3118 3117 3117 3116 3116 3115 3115 3114 3114 3113 3113 3113 3113 3113 3112 3112 3111 3111 3110 3110 3110 3109 3109 3109 3108 3108 3107 3107 3106 3106 3105 3105 3105 3104 3104 3103 3103 3102 3102 3101 3101 3101 3100 3100 3100 3099 3099 3098 3098 3097 3097 3097 3096 3096 3096 3095 3095 3095 3095 3095
3135 3135 3135 3135 3135 3134 3134 3134 3133 3133 3132 3132 3131 3131 3130 3130 3130 3129 3129 3128 3128 3127 3127 3126 3126 3125 3125 3125 3124 3124 3123 3122 3122 3121 3121 3121 3120 3120 3120 3119 3118 3118 3117 3117 3116 3116 3115 3115 3114 3114 3113 3113 3113 3112 3112 3112 3112 3112 3111 3110 3110 3110 3109 3109 3108 3108 3107 3107 3106 3106 3106 3105 3105 3104 3104 3103 3103 3102 3102 3101 3101 3100 3100 3100 3099 3099 3098 3098 3098 3097 3097 3096 3096 3095 3095 3095 3094 3094 3094 3094 3093 3093 3093
3134 3134 3134 3134 3134 3133 3133 3133 3132 3132 3131 3131 3130 3130 3130 3129 3129 3128 3128 3127 3127 3126 3125 3125 3125 3124 3124 3124 3123 3122 3122 3121 3121 3120 3120 3120 3119 3119 3118 3118 3117 3116 3116 3115 3115 3115 3114 3114 3114 3113 3113 3112 3112 3111 3111 3111 3110 3110 3110 3109 3109 3108 3108 3107 3107 3106 3106 3105 3105 3105 3104 3104 3103 3103 3102 3102 3101 3101 3100 3100 3100 3099 3099 3098 3098 3097 3097 3096 3096 3095 3095 3095 3094 3094 3093 3093 3092 3092 3092 3092 3091 3091 3091
3133 3133 3133 3133 3133 3132 3132 3132 3131 3131 3130 3130 3130 3129 3129 3128 3128 3127 3127 3126 3126 3125 3125 3124 3124 3123 3123 3122 3122 3121 3120 3120 3120 3119 3119 3118 3118 3118 3117 3117 3116 3115 3115 3115 3114 3114 3113 3113 3112 3112 3112 3111 3111 3110 3110 3110 3109 3109 3109 3108 3108 3107 3106 3106 3105 3105 3105 3104 3104 3103 3103 3102 3102 3101 3101 3100 3100 3099 3099 3098 3098 3097 3097 3096 3096 3095 3095 3095 3094 3094 3093 3093 3092 3092 3091 3091 3091 3090 3090 3090 3090 3089 3089
3132 3132 3132 3132 3132 3131 3131 3131 3130 3130 3130 3129 3129 3128 3128 3127 3127 3126 3126 3125 3125 3125 3124 3123 3123 3122 3122 3121 3121 3120 3120 3119 3118 3118 3117 3117 3117 3116 3116 3115 3115 3115 3114 3113 3113 3112 3112 3112 3111 3111 3110 3110 3110 3109 3109 3108 3108 3107 3107 3107 3106 3106 3105 3105 3104 3103 3103 3102 3102 3102 3101 3101 3100 3100 3099 3099 3098 3098 3097 3097 3096 3096 3095 3095 3094 3094 3093 3093 3092 3092 3091 3091 3090 3090 3090 3089 3089 3089 3088 3088 3088 3087 3087
3131 3131 3131 3131 3130 3130 3130 3130 3129 3129 3129 3128 3128 3127 3127 3126 3126 3125 3125 3125 3124 3124 3123 3122 3122 3121 3120 3120 3120 3119 3118 3118 3117 3117 3116 3116 3115 3115 3115 3114 3114 3113 3113 3112 3112 3111 3111 3111 3110 3110 3110 3109 3109 3108 3108 3107 3106 3106 3105 3105 3105 3104 3104 3103 3102 3102 3101 3101 3100 3100 3100 3099 3099 3098 3097 3097 3096 3096 3095 3095 3095 3094 3094 3093 3093 3092 3092 3091 3090 3090 3090 3089 3089 3088 3088 3087 3087 3086 3086 3086 3086 3085 3085
3130 3130 3130 3130 3129 3129 3129 3129 3128 3128 3128 3127 3127 3126 3126 3125 3125 3125 3124 3124 3123 3122 3122 3121 3121 3120 3120 3119 3118 3118 3117 3116 3116 3115 3115 3114 3114 3114 3113 3113 3113 3112 3111 3111 3110 3110 3110 3110 3109 3109 3108 3108 3107 3107 3106 3105 3105 3105 3104 3104 3103 3103 3102 3101 3101 3100 3100 3099 3099 3098 3098 3097 3097 3096 3096 3095 3095 3094 3094 3093 3093 3092 3092 3091 3091 3090 3090 3089 3089 3088 3088 3087 3087 3086 3086 3085 3085 3085 3084 3084 3084 3083 3083
3129 3129 3128 3128 3128 3128 3128 3127 3127 3127 3126 3126 3126 3125 3125 3125 3124 3124 3123 3123 3122 3121 3120 3120 3120 3119 3119 3118 3117 3117 3116 3115 3114 3114 3113 3113 3113 3112 3112 3112 3111 3111 3110 3110 3109 3109 3108 3108 3108 3107 3107 3106 3106 3105 3105 3104 3104 3103 3103 3102 3101 3101 3100 3100 3099 3099 3098 3098 3097 3097 3096 3095 3095 3095 3094 3093 3093 3092 3092 3091 3091 3090 3090 3089 3089 3088 3088 3087 3087 3086 3086 3085 3085 3084 3084 3083 3083 3083 3082 3082 3082 3081 3081
3127 3127 3127 3127 3127 3126 3126 3126 3126 3126 3125 3125 3125 3124 3124 3124 3123 3123 3122 3121 3121 3120 3119 3119 3118 3118 3117 3117 3116 3115 3115 3114 3113 3112 3112 3112 3111 3111 3111 3110 3110 3110 3109 3108 3108 3107 3107 3107 3106 3106 3106 3105 3105 3104 3103 3103 3102 3102 3101 3100 3100 3099 3099 3098 3097 3097 3096 3096 3096 3095 3095 3094 3093 3093 3092 3092 3091 3090 3090 3090 3089 3088 3088 3087 3087 3086 3086 3085 3085 3084 3084 3083 3083 3082 3082 3081 3081 3080 3080 3080 3080 3079 3079
3126 3126 3126 3125 3125 3125 3125 3125 3125 3125 3125 3124 3124 3123 3123 3122 3122 3122 3121 3120 3120 3119 3118 3118 3117 3116 3116 3115 3115 3114 3113 3113 3112 3111 3111 3110 3110 3110 3109 3109 3109 3108 3108 3107 3107 3106 3106 3105 3105 3105 3104 3104 3103 3103 3102 3101 3101 3100 3100 3099 3098 3098 3097 3096 3096 3095 3095 3094 3094 3094 3093 3092 3092 3091 3090 3090 3089 3089 3088 3088 3087 3086 3086 3085 3085 3085 3084 3083 3083 3082 3082 3081 3081 3080 3080 3079 3079 3079 3078 3078 3077 3077 3076
3125 3125 3124 3124 3124 3124 3124 3124 3124 3124 3123 3123 3122 3122 3122 3121 3121 3120 3120 3120 3119 3118 3117 3117 3116 3115 3115 3114 3113 3113 3112 3111 3110 3110 3110 3109 3109 3109 3108 3108 3107 3107 3106 3106 3105 3105 3105 3104 3104 3103 3103 3102 3102 3101 3101 3100 3100 3099 3098 3098 3097 3096 3095 3095 3094 3094 3093 3093 3092 3092 3091 3091 3090 3089 3089 3088 3087 3087 3086 3085 3085 3084 3084 3083 3083 3082 3082 3081 3081 3080 3080 3079 3079 3078 3077 3077 3077 3076 3076 3075 3075 3075 3074
3123 3123 3123 3123 3123 3123 3123 3123 3123 3122 3122 3122 3121 3121 3120 3120 3120 3119 3119 3118 3118 3117 3116 3116 3115 3114 3114 3113 3112 3111 3110 3110 3109 3109 3108 3108 3107 3107 3107 3106 3106 3106 3105 3105 3104 3104 3103 3103 3102 3102 3101 3101 3100 3100 3099 3099 3098 3097 3097 3096 3095 3095 3094 3093 3093 3092 3091 3091 3090 3090 3089 3089 3088 3087 3087 3086 3085 3085 3084 3084 3083 3082 3082 3081 3080 3080 3080 3079 3079 3078 3077 3077 3076 3076 3075 3075 3074 3074 3073 3073 3073 3072 3072
3122 3122 3122 3122 3122 3122 3122 3121 3121 3121 3121 3120 3120 3120 3120 3119 3119 3118 3117 3117 3116 3116 3115 3115 3114 3113 3113 3112 3111 3110 3110 3109 3108 3107 3107 3106 3106 3106 3105 3105 3105 3105 3104 3104 3103 3102 3102 3101 3101 3100 3100 3099 3099 3099 3098 3097 3096 3096 3095 3095 3094 3093 3092 3092 3091 3090 3090 3089 3089 3088 3087 3087 3086 3085 3085 3084 3083 3083 3082 3082 3081 3080 3080 3079 3078 3078 3077 3077 3076 3075 3075 3075 3074 3073 3073 3072 3072 3071 3071 3070 3070 3070 3069
3120 3120 3120 3120 3120 3120 3120 3120 3120 3120 3120 3119 3119 3119 3118 3118 3117 3117 3116 3116 3115 3115 3114 3114 3113 3112 3112 3111 3110 3109 3108 3108 3107 3106 3106 3105 3105 3104 3104 3104 3103 3103 3103 3102 3102 3101 3100 3100 3099 3099 3098 3098 3097 3097 3096 3096 3095 3094 3094 3093 3092 3092 3091 3090 3089 3089 3088 3087 3087 3086 3085 3085 3084 3083 3082 3082 3081 3080 3080 3079 3079 3078 3077 3077 3076 3075 3075 3074 3074 3073 3072 3072 3071 3071 3070 3070 3069 3069 3068 3068 3067 3067 3066
3119 3119 3119 3119 3119 3119 3119 3119 3119 3118 3118 3118 3118 3117 3117 3117 3116 3116 3115 3115 3114 3114 3113 3113 3112 3111 3110 3110 3109 3108 3107 3107 3106 3105 3105 3104 3104 3103 3102 3102 3102 3102 3101 3101 3100 3100 3099 3098 3098 3097 3097 3096 3096 3095 3095 3094 3093 3092 3092 3091 3090 3090 3089 3089 3088 3087 3086 3085 3085 3084 3083 3082 3081 3081 3080 3079 3079 3078 3077 3077 3076 3075 3075 3074 3074 3073 3072 3072 3071 3070 3070 3069 3069 3068 3068 3067 3067 3066 3065 3065 3064 3064 3063
3118 3118 3118 3118 3118 3118 3118 3117 3117 3117 3117 3117 3116 3116 3116 3116 3115 3115 3114 3114 3113 3112 3112 3111 3111 3110 3110 3109 3108 3107 3106 3106 3105 3104 3104 3103 3102 3102 3101 3101 3100 3100 3100 3099 3099 3098 3098 3097 3096 3096 3095 3095 3094 3093 3093 3092 3091 3090 3090 3089 3089 3088 3088 3087 3086 3085 3084 3083 3083 3082 3081 3080 3079 3078 3078 3077 3076 3075 3075 3074 3074 3073 3072 3072 3071 3070 3070 3069 3069 3068 3067 3067 3066 3065 3065 3065 3064 3063 3063 3062 3061 3061 3060
3116 3117 3117 3117 3116 3116 3116 3116 3116 3115 3115 3115 3115 3115 3115 3115 3114 3114 3113 3113 3112 3111 3111 3110 3110 3109 3108 3108 3107 3106 3105 3105 3104 3103 3102 3102 3101 3100 3100 3099 3099 3099 3098 3098 3097 3096 3096 3095 3095 3094 3093 3093 3092 3091 3091 3090 3090 3089 3088 3087 3087 3086 3085 3085 3084 3083 3082 3081 3081 3080 3079 3078 3077 3076 3075 3074 3074 3073 3072 3071 3071 3070 3070 3069 3068 3068 3067 3066 3066 3065 3064 3064 3063 3062 3062 3061 3061 3060 3060 3059 3058 3057 3057
3115 3115 3115 3115 3115 3115 3115 3115 3115 3114 3114 3114 3114 3114 3114 3114 3113 3113 3112 3112 3111 3110 3110 3109 3109 3108 3107 3106 3105 3105 3104 3104 3103 3102 3101 3101 3100 3099 3098 3097 3097 3096 3096 3096 3095 3095 3094 3094 3093 3092 3091 3091 3090 3090 3089 3088 3088 3087 3086 3085 3085 3084 3084 3083 3082 3081 3080 3080 3079 3078 3077 3076 3075 3074 3073 3072 3071 3070 3069 3069 3068 3067 3067 3066 3065 3065 3064 3063 3063 3062 3061 3061 3060 3060 3059 3058 3058 3057 3056 3055 3055 3054 3054
3114 3114 3114 3114 3114 3114 3114 3113 3113 3113 3113 3113 3113 3113 3113 3112 3112 3111 3111 3110 3110 3110 3109 3108 3107 3106 3106 3105 3104 3104 3103 3102 3102 3101 3100 3100 3099 3098 3097 3096 3095 3094 3094 3094 3093 3093 3092 3091 3091 3090 3090 3089 3088 3088 3087 3086 3086 3085 3085 3084 3083 3082 3082 3081 3080 3079 3078 3077 3076 3075 3075 3074 3072 3071 3070 3069 3068 3067 3066 3066 3065 3065 3064 3063 3062 3062 3061 3060 3060 3059 3058 3058 3057 3056 3056 3055 3055 3054 3053 3052 3052 3051 3050
3112 3112 3113 3113 3112 3112 3112 3112 3112 3112 3112 3112 3112 3112 3111 3111 3111 3110 3110 3110 3109 3108 3108 3107 3106 3105 3105 3104 3103 3102 3102 3101 3100 3100 3099 3098 3098 3097 3096 3095 3094 3093 3092 3091 3091 3091 3090 3090 3089 3089 3088 3087 3087 3086 3085 3085 3084 3084 3083 3082 3081 3080 3080 3079 3078 3077 3076 3075 3074 3073 3072 3071 3070 3069 3068 3067 3065 3065 3064 3063 3062 3062 3061 3060 3060 3059 3058 3058 3057 3056 3055 3055 3054 3053 3053 3052 3051 3050 3050 3049 3048 3048 3047
3110 3110 3111 3111 3111 3111 3111 3110 3110 3110 3110 3111 3111 3110 3110 3110 3110 3109 3109 3108 3108 3107 3106 3106 3105 3104 3104 3103 3102 3101 3100 3100 3099 3099 3098 3097 3096 3096 3095 3094 3093 3092 3091 3090 3089 3089 3089 3088 3088 3088 3087 3086 3085 3085 3084 3083 3083 3082 3081 3080 3079 3079 3078 3077 3076 3075 3074 3073 3072 3071 3070 3070 3069 3067 3066 3065 3064 3062 3061 3061 3060 3059 3059 3058 3057 3057 3056 3055 3054 3054 3053 3052 3051 3050 3050 3049 3048 3047 3047 3046 3045 3044 3044
3109 3109 3109 3110 3110 3110 3109 3109 3109 3109 3109 3110 3110 3109 3109 3109 3109 3108 3108 3107 3106 3105 3105 3104 3104 3103 3103 3102 3101 3100 3099 3099 3098 3097 3097 3096 3095 3095 3094 3093 3092 3091 3090 3089 3088 3086 3086 3086 3086 3086 3085 3084 3084 3083 3083 3082 3081 3080 3080 3079 3078 3077 3076 3075 3074 3073 3073 3072 3071 3070 3069 3068 3067 3066 3065 3063 3062 3061 3060 3059 3058 3057 3056 3055 3055 3054 3053 3053 3052 3051 3050 3049 3049 3048 3047 3046 3045 3044 3044 3043 3042 3041 3040
3108 3108 3108 3108 3108 3108 3108 3108 3108 3108 3108 3108 3108 3108 3108 3108 3107 3107 3106 3105 3105 3104 3104 3103 3102 3102 3101 3100 3100 3099 3098 3097 3097 3096 3095 3095 3094 3093 3092 3092 3091 3090 3089 3089 3087 3085 3084 3084 3084 3084 3083 3082 3082 3081 3081 3080 3080 3079 3078 3078 3077 3076 3075 3074 3073 3072 3071 3070 3069 3068 3067 3066 3065 3064 3063 3062 3060 3059 3058 3057 3055 3055 3054 3053 3052 3051 3051 3050 3049 3048 3048 3047 3046 3045 3044 3043 3042 3041 3040 3040 3039 3038 3037
3106 3107 3107 3107 3107 3107 3107 3107 3107 3107 3107 3107 3107 3107 3106 3106 3106 3105 3105 3104 3104 3103 3102 3101 3101 3100 3100 3099 3099 3098 3097 3096 3095 3095 3094 3093 3093 3092 3091 3090 3089 3088 3087 3086 3086 3085 3084 3083 3083 3082 3081 3080 3080 3079 3079 3078 3078 3077 3076 3076 3075 3074 3073 3072 3071 3070 3070 3068 3067 3066 3065 3065 3064 3062 3061 3060 3059 3057 3056 3055 3054 3052 3051 3050 3050 3049 3048 3047 3046 3045 3045 3044 3043 3042 3041 3041 3040 3039 3037 3036 3035 3034 3034
3105 3105 3105 3105 3105 3106 3105 3105 3105 3105 3105 3105 3105 3105 3105 3105 3105 3104 3104 3103 3102 3101 3101 3100 3100 3099 3098 3098 3097 3097 3096 3095 3095 3094 3093 3092 3091 3090 3090 3089 3088 3087 3086 3085 3084 3083 3082 3081 3081 3080 3079 3078 3077 3077 3076 3075 3075 3074 3074 3073 3072 3071 3071 3070 3069 3069 3067 3066 3065 3065 3063 3062 3061 3060 3059 3058 3057 3055 3054 3053 3052 3050 3049 3048 3047 3046 3045 3045 3044 3043 3042 3041 3040 3039 3039 3038 3036 3035 3034 3033 3032 3031 3030
3104 3104 3104 3104 3104 3104 3104 3104 3104 3104 3104 3104 3104 3104 3104 3104 3103 3103 3102 3101 3101 3100 3100 3099 3098 3097 3097 3096 3095 3095 3095 3094 3094 3093 3092 3090 3090 3089 3088 3087 3086 3085 3085 3084 3082 3081 3080 3079 3079 3078 3077 3076 3075 3075 3074 3073 3072 3071 3070 3070 3069 3068 3067 3067 3066 3065 3065 3064 3063 3062 3061 3060 3059 3058 3057 3055 3054 3053 3052 3051 3050 3049 3047 3046 3045 3044 3043 3042 3041 3040 3039 3038 3037 3036 3035 3034 3033 3032 3031 3030 3029 3027 3027
3102 3103 3103 3103 3103 3103 3103 3103 3103 3103 3103 3103 3103 3103 3102 3102 3102 3101 3101 3100 3100 3099 3098 3098 3097 3096 3095 3095 3094 3093 3093 3092 3092 3091 3091 3090 3089 3087 3086 3085 3085 3084 3083 3082 3081 3080 3078 3077 3076 3075 3075 3075 3074 3072 3071 3070 3070 3069 3068 3067 3066 3065 3064 3063 3062 3061 3060 3060 3059 3058 3057 3056 3055 3055 3054 3053 3051 3050 3049 3048 3047 3046 3045 3044 3043 3041 3040 3039 3038 3037 3036 3035 3034 3033 3032 3031 3030 3029 3027 3026 3025 3024 3023
3101 3101 3101 3101 3101 3101 3102 3102 3102 3102 3102 3102 3102 3101 3101 3101 3101 3100 3100 3099 3098 3098 3097 3096 3096 3095 3094 3094 3093 3092 3091 3091 3090 3089 3089 3088 3087 3086 3085 3084 3083 3082 3081 3080 3079 3078 3077 3076 3075 3073 3072 3072 3071 3071 3070 3068 3067 3066 3065 3064 3063 3062 3061 3060 3059 3058 3057 3056 3055 3054 3053 3052 3051 3050 3049 3049 3048 3047 3046 3045 3044 3043 3042 3041 3040 3038 3037 3036 3035 3034 3033 3032 3030 3030 3028 3027 3026 3025 3024 3022 3021 3020 3019
3100 3100 3100 3100 3100 3100 3100 3100 3100 3101 3100 3100 3100 3100 3100 3100 3099 3099 3098 3098 3097 3096 3096 3095 3095 3094 3093 3092 3091 3091 3090 3089 3088 3087 3087 3086 3085 3085 3084 3083 3082 3081 3080 3079 3078 3076 3075 3074 3073 3071 3070 3069 3069 3068 3068 3066 3065 3063 3062 3061 3060 3059 3058 3057 3056 3055 3053 3052 3051 3050 3049 3048 3047 3046 3045 3044 3043 3042 3041 3040 3040 3039 3038 3037 3036 3035 3034 3032 3031 3030 3029 3028 3027 3025 3024 3023 3022 3021 3020 3018 3017 3016 3015
3099 3099 3099 3099 3099 3099 3099 3099 3100 3100 3099 3099 3099 3099 3099 3099 3098 3097 3097 3096 3096 3095 3095 3094 3093 3093 3092 3091 3090 3090 3089 3088 3087 3086 3085 3084 3083 3082 3081 3080 3080 3079 3078 3076 3075 3075 3073 3072 3071 3070 3069 3067 3066 3065 3065 3064 3063 3061 3060 3058 3057 3056 3055 3054 3053 3051 3050 3049 3048 3047 3045 3045 3043 3042 3041 3040 3039 3038 3037 3036 3035 3035 3034 3033 3032 3031 3030 3028 3027 3026 3025 3024 3022 3021 3020 3018 3017 3015 3014 3013 3012 3011 3010